Starlink 35251

operational
NORAD ID: 65604 Int'l Des: 2025-207 Owner: SPXS Country: US Constellation: starlink
NOTLE

Starlink 35251について

説明を読み込み中...

リアルタイム位置

3D地球を読み込み中...

次回通過

高度履歴

Altitude vs Time

uPlot chart will show altitude changes over time

軌道要素

1 65604U 25207N 25308.62669762 .00036525 00000-0 93509-3 0 9999
2 65604 97.6025 12.9122 0001251 104.5451 255.5933 15.39316116 9285
Epoch: Nov 4, 2025 • Age: 11 hours

現在のステータス

高度 458.4 km
速度 7.64 km/s
衛星直下点 63.73°N, 80.4°W
打ち上げ日 Sep 13, 2025
運用期間 0.1 years
タイプ internet

技術仕様

分類 Payload
質量 575.00 kg
乾燥質量 530.00 kg
総質量 575.00 kg
長さ 0.30 m
直径 4.10 m
スパン 29.00 m
形状 Box + pan
製造者 SPXS
バスタイプ Starlink V2MO
フェーズステータス In Orbit
所有者/国 SPXS/US

大規模コンステレーション

Loading constellations...